Location: Newark
(34.6283°N, 36.0776°E)
Time: 13:42:31
(UTC+00:00)

Tiros 1 despin weight - Pass Details

Date: 24 September 2019
Orbit: 594 x 643 km, 48.2° (Epoch: 16 October)

Event Time Altitude Azimuth Distance (km) Brightness Sun altitude
Rises 08:23:21 0° 247° (WSW) 2,906 ? 51.9°
Reaches altitude 10° 08:25:44 10° 253° (WSW) 1,994 ? 52.1°
Maximum altitude 08:30:10 48° 328° (NNW) 815 ? 52.5°
Drops below altitude 10° 08:34:33 10° 43° (NE) 1,969 ? 52.8°
Sets 08:36:55 0° 49° (NE) 2,867 ? 53.0°
